Hourly Data Report for September 30, 2017

All times are specified in Local Standard Time (LST). Add 1 hour to adjust for Daylight Saving Time where and when it is observed.

PENTICTON A
BRITISH COLUMBIA

49°27'45.000" N
119°36'08.000" W
344.40 m
1126146
71889
YYF

Download Data

Hourly Data (September 2017)
Hourly Data Report for September 30, 2017
Temp Definition
°C
Dew Point Temp Definition
°C
Rel Hum Definition
%
Wind Dir Definition
10's deg

Wind Spd Definition
km/h
Visibility Definition
km
Stn Press Definition
kPa
Hmdx Definition


Wind Chill Definition


Weather Definition


TIME
00:00 Legend Double Dagger 11.1 10.3 95 36 1 24.1 97.20     LegendNANA
01:00 Legend Double Dagger 8.3 7.9 97 36 3 24.1 97.23     Mainly Clear
02:00 Legend Double Dagger 7.6 7.2 97 35 5 24.1 97.24     LegendNANA
03:00 Legend Double Dagger 8.0 6.4 90 2 5 24.1 97.27     LegendNANA
04:00 Legend Double Dagger 5.8 4.7 92 2 3 24.1 97.30     Clear
05:00 Legend Double Dagger 5.2 4.2 93 35 4 24.1 97.36     LegendNANA
06:00 Legend Double Dagger 5.2 4.1 92 36 3 24.1 97.37     LegendNANA
07:00 Legend Double Dagger 5.2 4.2 93 2 3 24.1 97.40     Mainly Clear
08:00 Legend Double Dagger 12.2 6.3 67 36 5 24.1 97.40     LegendNANA
09:00 Legend Double Dagger 14.4 3.3 47 33 7 24.1 97.39     LegendNANA
10:00 Legend Double Dagger 14.5 3.6 48 33 8 24.1 97.37     Mainly Clear
11:00 Legend Double Dagger 16.0 4.6 46 5 9 24.1 97.31     LegendNANA
12:00 Legend Double Dagger 17.2 -0.5 30 24 5 24.1 97.26     LegendNANA
13:00 Legend Double Dagger 19.0 -1.2 25 29 8 24.1 97.19     Mainly Clear
14:00 Legend Double Dagger 19.8 1.3 29 16 3 24.1 97.13     LegendNANA
15:00 Legend Double Dagger 19.5 0.2 27 36 12 24.1 97.12     LegendNANA
16:00 Legend Double Dagger 17.8 -0.4 29 31 11 24.1 97.14     Mostly Cloudy
17:00 Legend Double Dagger 15.7 1.1 37 1 16 24.1 97.21     LegendNANA
18:00 Legend Double Dagger 14.7 1.2 39 35 26 24.1 97.29     LegendNANA
19:00 Legend Double Dagger 13.2 2.3 47 1 12 24.1 97.36     Mostly Cloudy
20:00 Legend Double Dagger 11.8 3.6 57 1 11 24.1 97.39     LegendNANA
21:00 Legend Double Dagger 10.8 2.4 56 33 8 24.1 97.43     LegendNANA
22:00 Legend Double Dagger 10.7 2.0 55 29 7 24.1 97.44     Mostly Cloudy
23:00 Legend Double Dagger 7.9 2.9 70 35 9 24.1 97.45     LegendNANA

Notes on Data Quality.

Legend

  • E = Estimated
  • M = Missing
  • NA = Not Available
  • ‡ = Partner data that is not subject to review by the National Climate Archives
Date modified: